Location: Bailleul
(50.3375°N, 2.8513°E)
Time: 10:11:11
(UTC+00:00)

Aureole 1 Rocket - Pass Details

Date: 16 June 2021
Orbit: 377 x 1372 km, 73.9° (Epoch: 27 July)

Event Time Altitude Azimuth Distance (km) Brightness Sun altitude
Rises 21:25:52 0° 334° (NNW) 3,189 8.9 -9.7°
Reaches altitude 10° 21:27:58 10° 333° (NNW) 2,394 7.7 -9.9°
Maximum altitude 21:33:32 77° 249° (WSW) 1,002 4.1 -10.4°
Enters shadow 21:40:11 12° 165° (SSE) 2,868 5.8 -10.9°
